COSMOS 1275 DEB, 19853

Orbit data source: Space-Track

COSMOS 1275 DEB, 19853 is space debris in LEO originally from a launch on Thu, 04 Jun 1981 UTC launched from the Plesetsk Missile And Space Complex (PKMTR). Debris objects in space refer to the collection of defunct objects orbiting the Earth. Examples of debris include non-operational satellites, rocket bodies, and fragments generated from explosions, collisions, or faulty payload assembly.

Loading next visibility...
Identifier
19853, 1981-053MH
Orbit
LEO
Country
Flag of CISCIS
Related business
Manufacturer
Unknown
Mission
Spacecraft
Bus & Motor
Unknown
Mass
Unknown
Launch date (UTC)
1981-06-04 (45 years ago)
Launch vehicle
Unknown
Launch site
Plesetsk Missile And Space Complex (PKMTR)
Object type
Payload
Rocket body
Debris
Shape & HBR
Unknown shape, 0.1 m
Radar Cross Section
Small (<0.1 m²)

Expand to show TLE details & history
Last TLE update: 3 days ago

TLE from 3 days ago
0 COSMOS 1275 DEB
1 19853U 81053MH  26132.43568029  .00000721  00000-0  78604-3 0  9992
2 19853  82.9880 290.0387 0117855 330.9492  56.5652 13.68583623689589
Epoch: 2026-05-12T10:27Z
TLE epoch observation values (Epoch: 2026-05-12T10:27:22.777Z)
Latitude
28.46051°
Longitude
-93.21339°
Altitude
960.932 km
Speed
7.397 km/s
True Right ascension
19h 35m 21s
True Declination
28° 19' 14"
Sunlit
Object was in daylight at epoch
Visualization orbit readout
Latitude
Unknown
Longitude
Unknown
Altitude
Unknown
Speed
Unknown
Apparent Right ascension
Unknown
Apparent Declination
Unknown
Sunlit
N/A
Visualization observer readout
Local Sidereal Time
19:00:53
Azimuth
Unknown
Elevation
Unknown
Doppler factor
Unknown
Orbital elements
Apogee altitude
1,088.792 km
Perigee altitude
914.839 km
Semi-major axis
7,379.953 km
Eccentricity
0.01179
Inclination
82.988°
RAAN
290.0387°
Arg. of periapsis
330.9492°
True anomaly
57.70137°
Mean anomaly
56.5652°
Eccentric anomaly
57.13237°
Mean motion
3.42344 °/min
Orbital period
105.16 mins
BSTAR
0.00078604
Loading maneuver chart data...
Computing Atmospheric mass density...
Loading historical data...
Loading historical data...
Loading historical data...
Loading historical data...
Loading historical data...
Loading historical data...
Loading historical data...

Documentation

Showing up to 5 results
|